Weather History for Merida, Mexico

Change the Weather History Date:

Thursday, April 11, 2013

  Actual Average Record
Temperature  
Mean Temperature 88 °F -  
Max Temperature 104 °F 94 °F 107 °F (2004)
Min Temperature 73 °F 68 °F 53 °F (2003)
Cooling Degree Days 24    
Growing Degree Days 38 (Base 50)    
Moisture  
Dew Point 70 °F    
Average Humidity 66    
Maximum Humidity 94    
Minimum Humidity 28    
Precipitation  
Precipitation 0.79 in - - ()
Sea Level Pressure  
Sea Level Pressure 29.71 in    
Wind  
Wind Speed 12 mph ()    
Max Wind Speed 24 mph    
Max Gust Speed 58 mph    
Visibility 5.5 miles    
Events Rain , Thunderstorm    
Averages and records for this station are not official NWS values.
T = Trace of Precipitation, MM = Missing Value Source: Averaged Metar Reports

Daily Weather History Graph

Daily Weather History Graph

Search for Another Location

Airport:

Trip Planner

Search our weather history database for the weather conditions in past years. The results will help you decide how hot, cold, wet, or windy it might be!

Date:

Astronomy

Apr. 11, 2013 Rise Set
Actual Time 6:42 AM CDT 7:16 PM CDT
Civil Twilight 6:20 AM CDT 7:38 PM CDT
Nautical Twilight 5:54 AM CDT 8:05 PM CDT
Astronomical Twilight 5:27 AM CDT 8:32 PM CDT
Moon 7:25 AM CDT (4/11) 8:36 PM CDT (4/11)
Length of Visible Light 13h 18m
Length of Day
12h 33m
New Moon, 2% of the Moon is Illuminated
Apr 11
New Moon
Apr 18
First Quarter
Apr 25
Full
May 2
Last Quarter
May 9
New

Hourly Weather History & Observations

Time (CDT) Temp. Heat Index Dew Point Humidity Pressure Visibility Wind Dir Wind Speed Gust Speed Precip Events Conditions
12:49 AM 78.8 °F - 68.0 °F 69% 29.80 in 7.0 mi ESE 16.1 mph - N/A   Clear
12:50 AM 80 °F - 71 °F 68% 29.78 in 3 mi ESE 13.4 mph - -   Scattered Clouds
1:49 AM 77.0 °F - 69.8 °F 78% 29.76 in 7.0 mi ESE 12.7 mph - N/A   Clear
2:48 AM 77.0 °F - 69.8 °F 78% 29.73 in 7.0 mi ESE 13.8 mph - N/A   Clear
3:50 AM 78 °F - 72 °F 77% 29.74 in 3 mi ESE 11.2 mph - -   Partly Cloudy
3:53 AM 77.0 °F - 69.8 °F 78% 29.80 in 7.0 mi ESE 16.1 mph - N/A   Clear
4:51 AM 77.0 °F - 69.8 °F 78% 29.71 in 7.0 mi SE 18.4 mph - N/A   Mostly Cloudy
5:52 AM 77.0 °F - 69.8 °F 78% 29.72 in 7.0 mi SE 18.4 mph - N/A   Mostly Cloudy
6:50 AM 76 °F - 71 °F 82% 29.73 in 6 mi SE 6.7 mph - -   Scattered Clouds
6:50 AM 75.2 °F - 69.8 °F 83% 29.76 in 5.0 mi SE 16.1 mph - N/A   Scattered Clouds
7:48 AM 77.0 °F - 69.8 °F 78% 29.73 in 6.0 mi SE 16.1 mph - N/A   Scattered Clouds
8:41 AM 80.6 °F 83.9 °F 69.8 °F 70% 29.73 in 6.0 mi SE 24.2 mph - N/A   Mostly Cloudy
9:11 AM 82.4 °F 86.3 °F 69.8 °F 66% 29.74 in 6.0 mi SE 23.0 mph - N/A   Mostly Cloudy
9:43 AM 84.2 °F 88.4 °F 69.8 °F 62% 29.75 in 6.0 mi SE 19.6 mph 31.1 mph N/A   Mostly Cloudy
9:50 AM 87 °F - 73 °F 55% 29.75 in 6 mi SE 11.2 mph - -   Scattered Clouds
10:46 AM 89.6 °F 93.4 °F 68.0 °F 49% 29.73 in 6.0 mi ESE 15.0 mph 26.5 mph N/A   Partly Cloudy
11:45 AM 91.4 °F 95.4 °F 68.0 °F 46% 29.72 in 6.0 mi SE 16.1 mph 34.5 mph N/A   Clear
12:43 PM 95.0 °F 98.5 °F 66.2 °F 39% 29.71 in 6.0 mi SSE 12.7 mph 24.2 mph N/A   Clear
12:50 PM 95 °F - 71 °F 37% 29.71 in 6 mi SE 8.9 mph - -  
1:43 PM 96.8 °F 99.0 °F 64.4 °F 34% 29.68 in 6.0 mi South 10.4 mph 21.9 mph N/A   Scattered Clouds
2:48 PM 98.6 °F 101.0 °F 64.4 °F 32% 29.65 in 6.0 mi South 8.1 mph - N/A   Mostly Cloudy
3:40 PM 100.4 °F 103.6 °F 64.4 °F 31% 29.67 in 5.0 mi ESE 11.5 mph - N/A   Mostly Cloudy
3:50 PM 103 °F - 72 °F 28% 29.66 in 6 mi ESE 6.7 mph - -   Partly Cloudy
4:46 PM 100.4 °F 102.4 °F 62.6 °F 29% 29.62 in 6.0 mi SE 13.8 mph - N/A   Scattered Clouds
5:41 PM 93.2 °F 98.8 °F 69.8 °F 46% 29.63 in 5.0 mi WNW 11.5 mph - N/A   Mostly Cloudy
5:50 PM 86.0 °F 91.8 °F 71.6 °F 62% 29.64 in 2.0 mi WNW 15.0 mph 27.6 mph N/A Rain , Thunderstorm Light Thunderstorms and Rain
5:55 PM 82.4 °F 87.2 °F 71.6 °F 70% 29.62 in 0.5 mi WNW 17.3 mph 57.5 mph N/A Rain , Thunderstorm Thunderstorms and Rain
6:11 PM 73.4 °F - 71.6 °F 94% 29.66 in 2.0 mi ENE 17.3 mph - N/A Rain , Thunderstorm Thunderstorms and Rain
6:18 PM 73.4 °F - 71.6 °F 94% 29.66 in 3.0 mi ENE 8.1 mph - N/A Rain , Thunderstorm Light Thunderstorms and Rain
6:42 PM 75.2 °F - 71.6 °F 89% 29.68 in 5.0 mi NNW 10.4 mph - N/A Thunderstorm Thunderstorm
6:50 PM 81 °F - 70 °F 63% 29.71 in 6 mi NNE 8.9 mph - -   Partly Cloudy
7:50 PM 78.8 °F - 75.2 °F 89% 29.68 in 6.0 mi North 4.6 mph - N/A   Mostly Cloudy
8:49 PM 78.8 °F - 73.4 °F 83% 29.70 in 7.0 mi NNE 6.9 mph - N/A   Mostly Cloudy
9:47 PM 78.8 °F - 73.4 °F 83% 29.76 in 7.0 mi Calm Calm - N/A   Mostly Cloudy
9:50 PM 80 °F - 71 °F 69% 29.74 in 3 mi NNE 8.9 mph - -   Partly Cloudy
10:50 PM 78.8 °F - 73.4 °F 83% 29.77 in 7.0 mi SE 4.6 mph - N/A   Mostly Cloudy
11:44 PM 78.8 °F - 73.4 °F 83% 29.77 in 7.0 mi SE 9.2 mph - N/A   Mostly Cloudy